SL-12 R/B(2), 20266

Orbit data source: Space-Track

SL-12 R/B(2), 20266 is space debris in GEO originally from a launch on Thu, 28 Sep 1989 UTC launched from the Tyuratam Missile And Space Complex (TTMTR). Debris objects in space refer to the collection of defunct objects orbiting the Earth. Examples of debris include non-operational satellites, rocket bodies, and fragments generated from explosions, collisions, or faulty payload assembly.

Loading next visibility...
SL-12 R/B(2) details
Identifier
20266, 1989-081D
Orbit
GEO
Last TLE update2 days ago
Origin
Flag of CISRVSN (CIS)
ManufacturerNPO Energiya
MissionSpacecraft
Bus & MotorBLOK DM, Unknown motor
Mass2,440 kg wet, 2,440 kg dry
Launch date (UTC)
1989-09-28 (35 years ago)
Launch vehicleUnknown
Launch site
Tyuratam Missile And Space Complex (TTMTR)
Object type
Payload
Rocket body
Debris
Shape & HBRCyl, 6.27 m
Radar Cross Section23.597 m², Large (>1 m²)

Expand to show TLE details & history

TLE from 2 days ago
0 SL-12 R/B(2)
1 20266U 89081D   25045.28586454 -.00000233  00000-0  00000-0 0  9999
2 20266  12.4257 336.2204 0026948 115.1527 117.9570  1.00602452114444
Epoch: 2025-02-14T06:51Z
Definitive object data (Epoch: 2025-02-14T06:51:38.696Z)
Latitude-9.9452°
Longitude-38.48369°
Altitude35,748.438 km
Speed3.074 km/s
True Right ascension13h 55m 54s
True Declination-9° 56' 07"
Sunlit
Object was in daylight at TLE epoch
Visualization TLE readout
Latitude-6.5936°
Longitude57.15628°
Altitude35,790.493 km
Speed3.071 km/s
Apparent Right ascension20h 44m 36s
Apparent Declination-12° 24' 31"
Sunlit
Object is in daylight
Visualization observer readout
Local Sidereal Time15:38:00
Azimuth108.041° ESE
Elevation2.01°
Doppler factor1
Orbital elements
Apogee altitude35,808.53 km
Perigee altitude35,581.772 km
Semi-major axis42,073.288 km
Eccentricity0.0026948
Inclination12.4257°
RAAN336.2204°
Arg. of periapsis115.1527°
True anomaly118.22933°
Mean anomaly117.957°
Eccentric anomaly118.09321°
Mean motion0.2515 °/min
BSTARUnknown
Orbital period1431.43 mins
Loading historical data...
20266 neighbors
Authenticating...
Loading maneuver chart data...
Loading historical data...
Loading historical data...
Loading historical data...
Loading historical data...
Loading historical data...
Loading historical data...
Loading historical data...

SL-12 R/B(2) Visibility forecast

Observer location: undefined°, undefined

Span
Click to sort rows by Start time (UTC) header in descending order
Start Az.
Max El. time (UTC)
Max El. Az.
Max El.
End time (UTC)
End Az.
502 mins2025-02-16 16:22:24.275Z100.331° ESE2025-02-16 20:19:24.275Z93.453° ESE14.458°2025-02-17 00:44:24.275Z97.161° ESE
|